Погода в Голдине

Россия / Рязанская область     54°07′00″N   39°05′12″E
темп.,
°C
ветер,
м/с
пор.,
м/с
влажн.,
%
обл.,
%
осадки,
мм/ч
давл.,
гПа
погр.,
м
16 июня, ср
ср1600:00+17ссз228995 0.1 101013
03:00+16сз34927 0.4 100960
06:00+17ссз379423 0.4 1009210
09:00+21ссз56805 0.4 1010513
12:00+23ссз67705 0.9 10111126
15:00+23с666640 1.0 10121431
18:00+21с69805 0.6 1013590
21:00+17с410902 0.7 1015197
17 июня, чт
чт1700:00+14с410930 0.0 1018208
03:00+12ссв48850 0.0 1019122
06:00+12ссв38820 0.0 1021201
09:00+18ссв46655 0.0 1022420
12:00+21св45555 0.0 10231216
15:00+22ссв55574 0.0 10231411
18:00+21ссв466769 0.0 1023477
21:00+15св49790 0.0 1025145
18 июня, пт
пт1800:00+13св37760 0.0 1026113
03:00+12всв22830 0.0 102724
06:00+14св25840 0.0 1028144
09:00+19всв35671 0.0 1028522
12:00+21в34574 0.0 10281256
15:00+22в34566 0.0 10271440
18:00+22в23685 0.0 10271209
21:00+17вюв128112 0.0 102711
19 июня, сб
сб1900:00+15ююв228457 0.0 102811
03:00+13ю22900 0.0 102814
06:00+15ю22851 0.0 102970
09:00+20ююв23683 0.0 1029488
12:00+22юв34570 0.0 10281006
15:00+23ююв33540 0.0 10271153
18:00+22ююв23670 0.0 1026919
21:00+17ююв22810 0.0 102613
20 июня, вс
вс2000:00+15ю22885 0.0 102618
03:00+14ююз22880 0.0 102710
06:00+16ююв12830 0.0 102759
09:00+21ююв23700 0.0 1026505
12:00+23ююв34600 0.0 10251059
15:00+25ююв33560 0.0 10241254
18:00+25ююв22670 0.0 10231063
21:00+19юв338599 0.0 102323